[[[{"header":{"parameterUnit":"kt","parameterCategory":2,"dx":1,"dy":1,"la1":30.253999710083008,"la2":30.299108505249023,"lo1":-89.0895004272461,"lo2":-89.04439544677734,"nx":28,"ny":28,"refTime":"2022-10-11T21:00:00:Z","depth":0,"parameterNumber":1,"parameterNumberName":"U-component_of_WINDS"},"data":[7.2719,7.2902,7.2896,7.3101,7.313,7.3269,7.3317,7.3377,7.3423,7.3588,7.3681,7.3693,7.3736,7.3845,7.3945,7.3948,7.3991,7.4059,7.4051,7.375,7.3708,7.3668,7.3624,7.4069,7.4069,7.4362,7.4365,7.4367,7.2497,7.2527,7.2635,7.2734,7.2826,7.2755,7.2828,7.2909,7.3035,7.3094,7.3186,7.333,7.3443,7.3463,7.357,7.3654,7.3627,7.3684,7.3677,7.3685,7.3364,7.3317,7.3704,7.3704,7.3704,7.3703,7.3703,7.3703,7.2089,7.2199,7.2256,7.2372,7.242,7.2487,7.2591,7.2603,7.2707,7.2819,7.2791,7.2933,7.2991,7.3117,7.3158,7.3268,7.3204,7.3264,7.3279,7.3295,7.3312,7.2888,7.3286,7.3285,7.3284,7.3283,7.3282,0,7.1789,7.1776,7.1878,7.198,7.2064,7.2142,7.2211,7.2275,7.2245,7.2334,7.2459,7.2531,7.2672,7.279,7.2889,7.2919,7.2855,7.2849,7.289,7.2905,7.2906,7.2907,7.2382,7.2837,7.2834,7.2831,7.2829,7.2827,7.1376,7.1506,7.1563,7.1635,7.1672,7.1791,7.186,7.1824,7.1899,7.1979,7.2078,7.2196,7.2288,7.2491,7.2504,7.261,7.258,7.2754,7.2596,7.2605,7.2582,7.2575,7.2587,7.2786,7.2792,7.2796,7.2799,0,7.1145,7.1134,7.1333,7.1376,7.139,7.1528,7.1564,7.1673,7.1672,7.1822,7.1855,7.1855,7.198,7.1965,7.2105,7.2093,7.2318,7.2286,7.2297,7.229,7.2444,7.2429,7.2948,7.3013,7.2553,7.2557,7.2561,0,7.0789,7.0961,7.0934,7.105,7.124,7.1199,7.1387,7.1406,7.1455,7.1572,7.1497,7.1609,7.1571,7.1681,7.1664,7.1845,7.1872,7.1873,7.1867,7.1881,7.1881,7.192,7.1899,7.1848,7.1845,7.1843,7.1841,0,7.0428,7.0615,7.0803,7.0844,7.0908,7.0997,7.1028,7.1082,7.1151,7.1237,7.1281,7.1385,7.1442,7.1523,7.15,7.1393,7.1722,7.157,7.1724,7.1725,7.1798,7.1794,7.2256,7.1837,7.1837,7.1836,7.1835,0,7.0138,7.0226,7.0502,7.0552,7.0603,7.0728,7.0826,7.0929,7.0993,7.0989,7.1057,7.1005,7.1163,7.1013,7.123,7.1096,7.1157,7.1173,7.1183,7.1197,7.103,7.1293,7.1734,7.178,7.1208,7.1203,7.1199,0,6.9727,7.0002,6.9969,7.0232,7.0357,7.0262,7.04,7.0458,7.0466,7.0572,7.058,7.0702,7.0587,7.0624,7.0733,7.0746,7.0919,7.0722,7.0877,7.0883,7.0862,7.1268,7.1338,7.1639,7.1132,7.1139,7.1144,0,6.9407,6.9483,6.9533,6.9577,6.9648,6.9753,6.9911,7.0023,7.0095,7.017,7.0302,7.0474,7.0393,7.0455,7.0424,7.0539,7.0801,7.0438,7.0439,7.0504,7.1097,7.1162,7.1213,7.0755,7.0763,7.0769,7.1091,0,6.8972,6.9109,6.9241,6.9344,6.9422,6.9586,6.9569,6.9653,6.9615,6.9619,6.9812,6.9858,6.9974,7.0027,6.9992,7.0259,7.0212,7.0126,6.998,7.0247,7.0352,7.0395,6.9824,6.982,6.9816,6.9813,0,0,6.8582,6.8777,6.8736,6.8888,6.8951,6.8852,6.9029,6.9079,6.9184,6.923,6.9147,6.9398,6.944,6.9677,6.9758,6.9806,6.9852,6.976,7.012,7.0154,7.0186,7.0299,7.0344,6.9806,6.9805,6.9804,6.9802,0,6.842,6.8463,6.8638,6.8688,6.876,6.8755,6.8798,6.8852,6.8863,6.9053,6.8969,6.9083,6.9286,6.934,6.9395,6.973,6.9662,6.9767,6.9953,7.0083,7.0123,7.0157,7.0276,7.032,6.9793,6.9794,6.9794,0,6.8101,6.8141,6.8224,6.8363,6.841,6.8542,6.8383,6.8529,6.8626,6.8512,6.8702,6.8726,6.8798,6.9025,6.9126,6.9054,6.9489,6.935,6.9373,6.9384,6.951,6.9557,6.9599,6.9046,6.9043,6.9041,0,0,6.7964,6.809,6.8122,6.8327,6.8362,6.8359,6.8427,6.8396,6.8462,6.849,6.8519,6.8586,6.8703,6.8781,6.889,6.9142,6.9153,6.9258,6.9294,6.9323,6.935,6.9483,6.953,6.9031,6.9031,6.903,0,0,6.7898,6.7942,6.7892,6.8128,6.8193,6.8239,6.8365,6.8305,6.8401,6.8381,6.8336,6.8353,6.8564,6.8592,6.8465,6.8838,6.8694,6.8724,6.8813,6.8857,6.8892,6.8881,6.831,0,0,0,0,0,6.7723,6.7936,6.789,6.7927,6.8104,6.8264,6.8287,6.8254,6.8152,6.8253,6.8267,6.8189,6.8514,6.84,6.8438,6.8581,6.8907,6.8929,6.895,6.9123,6.917,6.9209,0,0,0,0,0,0,6.7738,6.7783,6.7884,6.7939,6.7978,6.8256,6.8076,6.8073,6.814,6.8122,6.8188,6.8191,6.8167,6.8378,6.8413,6.8549,6.8298,6.8916,6.8934,6.8951,6.9139,6.9177,6.921,0,0,0,0,0,6.7749,6.7785,6.8078,6.7935,6.797,6.7977,6.8067,6.8063,6.8115,6.8139,6.8139,6.8085,6.8172,6.8199,6.8399,6.8534,6.8274,6.8287,6.8928,6.8942,6.8956,6.9158,0,0,0,0,0,0,6.7757,6.7783,6.8084,6.8093,6.7853,6.7961,6.7977,6.8056,6.8126,6.8129,6.8032,6.8017,6.8178,6.8198,6.8219,6.8531,6.8254,6.8268,6.8276,6.8939,6.895,6.8961,0,0,0,0,0,0,6.7763,6.7792,6.8089,6.7986,6.7983,6.7946,6.7961,6.8126,6.8129,6.8015,6.8005,6.8024,6.8146,6.8198,6.8214,6.8474,6.8239,6.8252,6.8261,6.8266,6.8948,6.8957,0,0,0,0,0,0,6.7775,6.7799,6.7983,6.7981,6.7978,6.8079,6.8092,6.8276,6.804,6.8014,6.8018,6.8008,6.8149,6.8164,6.8212,6.8465,6.8472,6.8239,6.8248,6.8254,6.8258,0,0,0,0,0,0,0,6.7784,6.7627,6.8029,6.7977,6.7974,6.8178,6.8181,6.8183,6.8037,6.8029,6.802,6.8012,6.8166,6.818,6.8194,6.8458,0,0,6.8238,6.8244,0,0,0,0,0,0,0,0,6.7616,6.7625,6.803,6.8031,6.8033,6.8179,6.8181,6.8183,6.8036,6.8029,6.8022,6.8015,6.817,6.8181,6.8193,0,0,0,0,0,0,0,0,0,0,0,0,0,0,0,6.803,6.8031,0,6.8179,6.8181,6.8182,6.8035,6.8029,6.8023,6.8018,6.8173,6.8182,6.8192,0,0,0,0,0,0,0,0,0,0,0,0,0,0,0,0,0,0,0,0,0,0,0,0,0,0,0,0,0,0,0,0,0,0,0,0,0,0,0,0,0,0,0,0,0,0,0,0,0,0,0,0,0,0,0,0,0,0,0,0,0,0,0,0,0,0,0,0,0]}],[{"header":{"parameterUnit":"kt","parameterCategory":2,"dx":1,"dy":1,"la1":30.253999710083008,"la2":30.299108505249023,"lo1":-89.0895004272461,"lo2":-89.04439544677734,"nx":28,"ny":28,"refTime":"2022-10-11T21:00:00:Z","depth":0,"parameterNumber":2,"parameterNumberName":"V-component_of_WINDS"},"data":[1.837,1.8445,1.8458,1.8548,1.8575,1.8638,1.8664,1.8698,1.8728,1.8801,1.8844,1.8862,1.8894,1.8946,1.8992,1.8998,1.9016,1.9033,1.9037,1.8953,1.8942,1.8932,1.8916,1.9037,1.9037,1.9122,1.9122,1.9123,1.8304,1.8333,1.8385,1.8444,1.8488,1.8479,1.8524,1.856,1.8616,1.8653,1.8697,1.8762,1.8813,1.884,1.889,1.8921,1.8919,1.8934,1.8931,1.8936,1.8847,1.883,1.8935,1.8935,1.8935,1.8935,1.8935,1.8935,1.8188,1.8233,1.8278,1.8334,1.8367,1.8406,1.845,1.8473,1.8522,1.8579,1.8583,1.8645,1.8682,1.8749,1.8773,1.8819,1.8804,1.8823,1.8828,1.8832,1.8836,1.871,1.8828,1.8828,1.8828,1.8827,1.8827,0,1.8107,1.8116,1.8167,1.8223,1.8265,1.8308,1.8349,1.8377,1.8396,1.8435,1.8493,1.8527,1.8594,1.8648,1.8697,1.8719,1.8711,1.8712,1.8725,1.8724,1.8716,1.872,1.8573,1.8708,1.8707,1.8707,1.8706,1.8706,1.799,1.8042,1.8094,1.8129,1.8155,1.821,1.8245,1.8258,1.8294,1.8345,1.8382,1.8437,1.8482,1.8569,1.8592,1.8641,1.8637,1.8688,1.8645,1.8641,1.8637,1.8633,1.8637,1.8695,1.8697,1.8698,1.8699,0,1.7922,1.7945,1.8028,1.8076,1.8089,1.8141,1.8179,1.8223,1.8241,1.8303,1.8318,1.8344,1.8399,1.8415,1.848,1.8486,1.8565,1.8561,1.8552,1.8552,1.8597,1.8592,1.8745,1.8765,1.8641,1.8642,1.8643,0,1.783,1.7897,1.7926,1.7974,1.8047,1.8061,1.8132,1.8154,1.819,1.8239,1.8235,1.828,1.8294,1.8341,1.835,1.8418,1.843,1.8438,1.844,1.8439,1.8438,1.8456,1.845,1.8443,1.8442,1.8441,1.8441,0,1.7721,1.7816,1.7894,1.7918,1.7975,1.801,1.8035,1.8075,1.8109,1.8154,1.8176,1.8227,1.8255,1.8293,1.8305,1.8275,1.8389,1.835,1.8397,1.8397,1.8421,1.842,1.8552,1.844,1.844,1.8439,1.8439,0,1.765,1.7701,1.781,1.7857,1.7881,1.7932,1.7985,1.8033,1.8075,1.8085,1.812,1.812,1.8182,1.8142,1.8228,1.8185,1.8212,1.8226,1.823,1.8236,1.8191,1.8262,1.8387,1.84,1.8241,1.8239,1.8238,0,1.7518,1.7636,1.765,1.7753,1.781,1.7803,1.7858,1.7897,1.7916,1.7964,1.7983,1.8037,1.8011,1.8031,1.8071,1.8092,1.8147,1.8085,1.815,1.8152,1.8139,1.8254,1.8269,1.8358,1.8217,1.8219,1.8221,0,1.7419,1.7491,1.7509,1.7538,1.7594,1.7642,1.7706,1.7765,1.7796,1.784,1.7893,1.7971,1.7954,1.7986,1.7991,1.8032,1.811,1.8008,1.8009,1.8025,1.8209,1.8222,1.8237,1.8103,1.8106,1.8108,1.8204,0,1.7305,1.7368,1.7417,1.7483,1.7523,1.7589,1.7611,1.7649,1.765,1.7669,1.7747,1.7783,1.7841,1.7863,1.7865,1.7955,1.7942,1.7924,1.7886,1.7962,1.7994,1.8007,1.7837,1.7836,1.7835,1.7834,0,0,1.7172,1.7263,1.7277,1.7343,1.7377,1.737,1.7439,1.7471,1.7537,1.7559,1.7539,1.7654,1.7684,1.7776,1.7801,1.7825,1.7842,1.7816,1.7926,1.7936,1.7946,1.798,1.7993,1.7833,1.7832,1.7832,1.7832,0,1.7135,1.7172,1.7242,1.7276,1.7329,1.7346,1.7363,1.7413,1.7428,1.7507,1.7498,1.7547,1.764,1.7672,1.7701,1.7805,1.7795,1.7821,1.7871,1.7917,1.7928,1.7938,1.7974,1.7987,1.783,1.783,1.783,0,1.7041,1.708,1.7116,1.7197,1.7231,1.729,1.7256,1.732,1.7363,1.7351,1.7429,1.7451,1.7497,1.7583,1.7622,1.7604,1.7751,1.7709,1.7714,1.7719,1.7765,1.7778,1.779,1.7631,1.763,1.7629,0,0,1.7005,1.7065,1.7111,1.7191,1.7213,1.7241,1.7275,1.7281,1.7324,1.7342,1.7371,1.7412,1.7465,1.75,1.7552,1.7644,1.7653,1.7683,1.7693,1.77,1.7709,1.7757,1.777,1.7626,1.7626,1.7626,0,0,1.6988,1.7046,1.7042,1.7138,1.718,1.7229,1.7276,1.7271,1.732,1.7315,1.7326,1.7338,1.7418,1.7441,1.74,1.7538,1.7501,1.7511,1.7521,1.7533,1.7542,1.7535,1.7369,0,0,0,0,0,1.6963,1.7039,1.7034,1.7054,1.7156,1.7232,1.7245,1.7258,1.7231,1.7267,1.7291,1.7279,1.7421,1.7385,1.7403,1.7448,1.7589,1.7596,1.7602,1.7637,1.7649,1.766,0,0,0,0,0,0,1.6971,1.6995,1.7032,1.7085,1.7108,1.723,1.7187,1.7192,1.7227,1.7224,1.7275,1.728,1.7291,1.7377,1.7392,1.7435,1.7364,1.7592,1.7597,1.7602,1.7641,1.7651,1.766,0,0,0,0,0,1.6977,1.6996,1.7157,1.7084,1.7104,1.7139,1.7184,1.7188,1.7215,1.7253,1.7258,1.7222,1.7292,1.7306,1.7386,1.7428,1.7353,1.7359,1.7595,1.76,1.7604,1.7646,0,0,0,0,0,0,1.6982,1.7,1.7162,1.7168,1.7057,1.7132,1.7145,1.7185,1.7242,1.7249,1.7201,1.7197,1.7294,1.7304,1.7315,1.7425,1.7344,1.735,1.7354,1.7599,1.7602,1.7605,0,0,0,0,0,0,1.6989,1.7005,1.7165,1.713,1.7133,1.7126,1.7137,1.7207,1.7243,1.7186,1.7185,1.7198,1.7276,1.7303,1.7312,1.742,1.7338,1.7343,1.7347,1.735,1.7602,1.7604,0,0,0,0,0,0,1.6996,1.701,1.7129,1.7131,1.7133,1.7206,1.7187,1.7291,1.7216,1.7184,1.7209,1.7206,1.7276,1.7284,1.7309,1.7414,1.7418,1.7338,1.7342,1.7344,1.7346,0,0,0,0,0,0,0,1.7002,1.6908,1.7124,1.7131,1.7133,1.7228,1.7229,1.7231,1.7215,1.7213,1.721,1.7208,1.7305,1.7311,1.7318,1.7409,0,0,1.7337,1.734,0,0,0,0,0,0,0,0,1.6903,1.6907,1.7124,1.7125,1.7127,1.7228,1.7229,1.7231,1.7215,1.7213,1.7211,1.7209,1.7307,1.7312,1.7317,0,0,0,0,0,0,0,0,0,0,0,0,0,0,0,1.7124,1.7125,0,1.7228,1.7229,1.723,1.7215,1.7213,1.7211,1.7209,1.7308,1.7312,1.7317,0,0,0,0,0,0,0,0,0,0,0,0,0,0,0,0,0,0,0,0,0,0,0,0,0,0,0,0,0,0,0,0,0,0,0,0,0,0,0,0,0,0,0,0,0,0,0,0,0,0,0,0,0,0,0,0,0,0,0,0,0,0,0,0,0,0,0,0,0]}]]]